Weather History for Abbeville, LA

Change the Weather History Date:

Saturday, February 2, 2013

  Actual Average (KARA) Record (KARA)
Temperature  
Mean Temperature 58 °F 54 °F  
Max Temperature 72 °F 64 °F 81 °F (1975)
Min Temperature 43 °F 44 °F 15 °F (1951)
Degree Days  
Heating Degree Days 8 12  
Month to date heating degree days 24  
Since 1 July heating degree days 961  
Cooling Degree Days 0 0  
Month to date cooling degree days 0  
Year to date cooling degree days 12  
Growing Degree Days 8 (Base 50)    
Moisture  
Dew Point 52 °F    
Average Humidity 83    
Maximum Humidity 100    
Minimum Humidity 50    
Precipitation  
Precipitation 0.00 in 0.12 in 2.50 in (1998)
Month to date precipitation 0.25  
Year to date precipitation 5.47  
Sea Level Pressure  
Sea Level Pressure 30.26 in    
Wind  
Wind Speed 3 mph (SSE)    
Max Wind Speed 12 mph    
Max Gust Speed 16 mph    
Visibility 9 miles    
Events Fog    
T = Trace of Precipitation, MM = Missing Value Source: NWS Daily Summary

Daily Weather History Graph

Daily Weather History Graph

Search for Another Location

Airport:

Trip Planner

Search our weather history database for the weather conditions in past years. The results will help you decide how hot, cold, wet, or windy it might be!

Date:

Astronomy

Feb. 02, 2013 Rise Set
Actual Time 6:57 AM CST 5:46 PM CST
Civil Twilight 6:32 AM CST 6:11 PM CST
Nautical Twilight 6:04 AM CST 6:40 PM CST
Astronomical Twilight 5:36 AM CST 7:08 PM CST
Moon No Moon Rise 10:42 AM CST (2/2)
Length of Visible Light 11h 38m
Length of Day
10h 48m
Waning Gibbous, 59% of the Moon is Illuminated
Feb 2
Waning Gibbous
Feb 3
Last Quarter
Feb 10
New
Feb 17
First Quarter
Feb 25
Full

Hourly Weather History & Observations

Time (CST) Temp. Windchill Dew Point Humidity Pressure Visibility Wind Dir Wind Speed Gust Speed Precip Events Conditions
12:15 AM 46.0 °F - 46.0 °F 100% 30.31 in 10.0 mi Calm Calm - N/A   Clear
12:35 AM 46.6 °F - 46.6 °F 100% 30.31 in 10.0 mi Calm Calm - N/A   Clear
12:55 AM 45.0 °F - 45.0 °F 100% 30.31 in 7.0 mi Calm Calm - N/A   Clear
1:15 AM 44.8 °F - 44.8 °F 100% 30.31 in 7.0 mi Calm Calm - N/A   Clear
1:35 AM 43.7 °F - 43.7 °F 100% 30.31 in 7.0 mi Calm Calm - N/A   Clear
1:55 AM 44.6 °F - 44.6 °F 100% 30.30 in 3.0 mi Calm Calm - N/A   Clear
2:15 AM 45.0 °F - 45.0 °F 100% 30.30 in 7.0 mi Calm Calm - N/A   Clear
2:35 AM 46.0 °F 44.8 °F 46.0 °F 100% 30.30 in 7.0 mi ENE 3.5 mph - N/A   Clear
2:55 AM 45.9 °F - 45.9 °F 100% 30.29 in 10.0 mi Calm Calm - N/A   Clear
3:15 AM 45.7 °F - 45.7 °F 100% 30.29 in 10.0 mi Calm Calm - N/A   Clear
3:35 AM 46.4 °F 45.2 °F 46.4 °F 100% 30.29 in 7.0 mi East 3.5 mph - N/A   Clear
3:55 AM 46.6 °F - 46.6 °F 100% 30.29 in 10.0 mi Calm Calm - N/A   Clear
4:15 AM 46.2 °F - 46.2 °F 100% 30.29 in 10.0 mi Calm Calm - N/A   Clear
4:35 AM 45.9 °F - 45.9 °F 100% 30.29 in 7.0 mi Calm Calm - N/A   Clear
4:55 AM 45.9 °F 44.6 °F 45.9 °F 100% 30.29 in 7.0 mi East 3.5 mph - N/A   Clear
5:15 AM 45.9 °F 44.6 °F 45.9 °F 100% 30.29 in 10.0 mi ENE 3.5 mph - N/A   Clear
5:55 AM 47.3 °F - 47.3 °F 100% 30.28 in 10.0 mi East 5.8 mph - N/A   Clear
6:15 AM 49.1 °F - 49.1 °F 100% 30.29 in 10.0 mi East 6.9 mph - N/A   Clear
6:35 AM 49.6 °F - 49.5 °F 99% 30.29 in 10.0 mi East 5.8 mph - N/A   Clear
6:55 AM 48.7 °F - 48.6 °F 99% 30.29 in 10.0 mi East 4.6 mph - N/A   Clear
7:15 AM 49.1 °F - 48.4 °F 97% 30.29 in 10.0 mi East 4.6 mph - N/A   Clear
7:35 AM 50.5 °F - 49.3 °F 95% 30.30 in 10.0 mi East 4.6 mph - N/A   Clear
7:55 AM 52.7 °F - 50.4 °F 92% 30.30 in 10.0 mi East 5.8 mph - N/A   Clear
8:15 AM 54.9 °F - 50.7 °F 86% 30.30 in 10.0 mi ESE 8.1 mph - N/A   Clear
8:35 AM 56.5 °F - 51.1 °F 82% 30.31 in 10.0 mi ESE 8.1 mph - N/A   Clear
8:55 AM 57.7 °F - 51.4 °F 79% 30.31 in 10.0 mi ESE 8.1 mph - N/A   Clear
9:15 AM 60.3 °F - 51.8 °F 74% 30.31 in 10.0 mi SE 6.9 mph - N/A   Clear
9:35 AM 62.1 °F - 50.4 °F 65% 30.31 in 10.0 mi ESE 8.1 mph - N/A   Clear
9:55 AM 63.7 °F - 51.3 °F 64% 30.31 in 10.0 mi ESE 8.1 mph - N/A   Clear
10:15 AM 64.8 °F - 51.6 °F 62% 30.30 in 10.0 mi SE 10.4 mph - N/A   Clear
10:35 AM 65.5 °F - 52.0 °F 62% 30.30 in 10.0 mi SE 9.2 mph - N/A   Clear
10:55 AM 66.7 °F - 52.3 °F 60% 30.29 in 10.0 mi SSE 6.9 mph - N/A   Clear
11:15 AM 68.2 °F - 53.2 °F 59% 30.28 in 10.0 mi SSE 8.1 mph - N/A   Clear
11:35 AM 68.4 °F - 53.4 °F 59% 30.27 in 10.0 mi South 9.2 mph - N/A   Clear
11:55 AM 68.9 °F - 53.4 °F 58% 30.27 in 10.0 mi SSE 8.1 mph - N/A   Clear
12:15 PM 68.9 °F - 53.4 °F 58% 30.26 in 10.0 mi SSE 11.5 mph - N/A   Clear
12:35 PM 69.1 °F - 53.8 °F 58% 30.25 in 10.0 mi SSE 9.2 mph - N/A   Clear
12:55 PM 69.8 °F - 53.8 °F 57% 30.24 in 10.0 mi South 6.9 mph - N/A   Clear
1:15 PM 69.8 °F - 53.8 °F 57% 30.23 in 10.0 mi SSE 8.1 mph - N/A   Clear
1:35 PM 70.7 °F - 54.0 °F 55% 30.22 in 10.0 mi South 6.9 mph - N/A   Clear
1:55 PM 70.9 °F - 54.0 °F 55% 30.22 in 10.0 mi SSE 5.8 mph 16.1 mph N/A   Clear
2:15 PM 71.4 °F - 53.6 °F 53% 30.22 in 10.0 mi SSW 5.8 mph - N/A   Scattered Clouds
2:35 PM 72.3 °F - 53.6 °F 52% 30.21 in 10.0 mi WSW 8.1 mph - N/A   Mostly Cloudy
2:55 PM 72.1 °F - 52.9 °F 51% 30.21 in 10.0 mi SSW 3.5 mph - N/A   Scattered Clouds
3:15 PM 72.5 °F - 52.9 °F 50% 30.20 in 10.0 mi SW 6.9 mph - N/A   Scattered Clouds
3:35 PM 71.8 °F - 53.6 °F 53% 30.20 in 10.0 mi South 9.2 mph - N/A   Scattered Clouds
3:55 PM 69.1 °F - 55.0 °F 61% 30.20 in 10.0 mi South 5.8 mph - N/A   Mostly Cloudy
4:15 PM 67.6 °F - 55.6 °F 65% 30.20 in 10.0 mi South 8.1 mph - N/A   Mostly Cloudy
4:35 PM 66.4 °F - 55.6 °F 68% 30.20 in 10.0 mi South 6.9 mph - N/A   Scattered Clouds
4:55 PM 66.6 °F - 55.8 °F 68% 30.20 in 10.0 mi South 4.6 mph - N/A   Clear
5:15 PM 66.0 °F - 56.3 °F 71% 30.20 in 10.0 mi South 5.8 mph - N/A   Clear
5:35 PM 64.4 °F - 55.8 °F 73% 30.20 in 10.0 mi South 4.6 mph - N/A   Clear
5:55 PM 62.8 °F - 55.8 °F 78% 30.20 in 10.0 mi South 5.8 mph - N/A   Clear
6:15 PM 61.7 °F - 55.8 °F 81% 30.21 in 10.0 mi South 5.8 mph - N/A   Clear
6:35 PM 61.7 °F - 56.3 °F 82% 30.22 in 10.0 mi South 3.5 mph - N/A   Clear
6:55 PM 60.8 °F - 55.8 °F 83% 30.22 in 10.0 mi SSW 3.5 mph - N/A   Clear
7:15 PM 59.0 °F - 55.8 °F 89% 30.23 in 10.0 mi South 3.5 mph - N/A   Clear
7:35 PM 59.0 °F - 56.7 °F 92% 30.23 in 10.0 mi South 3.5 mph - N/A   Clear
7:55 PM 58.1 °F - 56.8 °F 96% 30.24 in 10.0 mi South 4.6 mph - N/A   Clear
8:15 PM 57.0 °F - 57.0 °F 100% 30.24 in 10.0 mi South 4.6 mph - N/A   Clear
8:35 PM 57.2 °F - 57.2 °F 100% 30.24 in 10.0 mi SSW 4.6 mph - N/A   Clear
8:55 PM 57.6 °F - 57.6 °F 100% 30.24 in 10.0 mi SSW 3.5 mph - N/A   Clear
9:15 PM 55.9 °F - 55.9 °F 100% 30.24 in 10.0 mi South 4.6 mph - N/A   Clear
9:35 PM 55.9 °F - 55.9 °F 100% 30.24 in 10.0 mi Calm Calm - N/A   Clear
9:55 PM 56.5 °F - 56.5 °F 100% 30.24 in 10.0 mi South 3.5 mph - N/A   Clear
10:15 PM 56.1 °F - 56.1 °F 100% 30.24 in 5.0 mi Calm Calm - N/A   Clear
10:35 PM 55.4 °F - 55.4 °F 100% 30.24 in 0.8 mi SSW 3.5 mph - N/A   Mist
10:55 PM 55.4 °F - 55.4 °F 100% 30.24 in 0.2 mi Calm Calm - N/A Fog Fog
11:15 PM 56.3 °F - 56.3 °F 100% 30.24 in 0.2 mi SW 3.5 mph - N/A Fog Fog
11:35 PM 57.4 °F - 57.4 °F 100% 30.24 in 0.5 mi SSW 3.5 mph - N/A Fog Fog
11:55 PM 58.1 °F - 58.1 °F 100% 30.24 in 0.8 mi SSW 3.5 mph - N/A   Overcast